Temperature
6 6 6 6 5 5 5 5 5 5 5 4 4 4 4 4 3 3 3 3 3 3 2 2 2 2 2 2 2 2 2 2 2 2 3 3 3 4 4 4 4 4 4
6 6 6 5 5 5 5 5 5 4 4 4 4 3 3 3 3 3 3 3 2 2 2 2 2 2 2 2 2 2 2 2 2 2 2 2 3 3 3 3 4 4 4
6 6 5 5 5 5 4 4 4 4 4 4 3 3 3 3 3 3 2 2 2 2 2 1 1 1 1 1 1 2 2 2 1 2 2 2 2 3 3 3 3 3 4
5 5 5 5 4 4 4 4 4 4 4 3 3 3 3 3 2 2 2 2 2 1 1 1 1 1 1 1 1 1 1 1 1 1 1 1 2 2 2 2 3 3 3
5 5 5 4 4 4 4 4 3 3 3 3 3 3 3 2 2 2 2 1 1 1 1 1 1 1 1 1 1 1 1 1 1 1 1 1 1 1 2 2 2 3 3
5 4 4 4 4 4 4 3 3 3 3 3 2 2 2 2 2 2 1 1 1 1 1 1 1 1 1 1 1 1 1 1 1 1 1 1 1 1 1 2 2 2 2
4 4 4 4 4 3 3 3 3 3 2 2 2 2 2 2 2 2 1 1 1 1 1 0 0 1 1 1 1 1 1 1 1 1 1 1 1 1 1 1 2 2 2
4 4 3 3 3 3 3 2 2 2 2 2 2 2 2 2 2 1 1 1 0 0 0 0 0 0 0 0 0 0 0 1 1 1 1 1 1 1 1 1 1 1 2
3 3 3 3 3 3 2 2 2 2 2 1 1 1 1 1 1 1 1 0 -0 -0 -0 -0 -0 -0 -0 -0 -0 0 0 0 1 1 1 1 1 1 1 1 1 1 1
3 3 3 2 2 2 2 2 2 1 1 1 1 1 1 1 1 1 0 -0 -1 -1 -1 -0 -0 -0 -0 -0 -0 -0 -0 0 0 0 1 1 1 1 1 1 1 1 1
2 2 2 2 2 2 1 1 1 1 1 1 1 1 1 1 0 0 -0 -1 -1 -1 -1 -1 -1 -1 -1 -1 -1 -0 -0 -0 -0 -0 0 0 0 0 0 1 1 1 1
2 2 2 2 1 1 1 1 1 1 0 0 0 0 0 0 -0 -0 -0 -1 -1 -1 -1 -1 -1 -1 -1 -1 -1 -1 -0 -0 -0 -0 -0 -0 -0 0 0 0 0 1 1
1 1 1 1 1 1 1 0 0 0 -0 -1 -1 -1 -1 -1 -1 -1 -1 -1 -1 -1 -2 -2 -2 -1 -1 -1 -1 -1 -1 -1 -1 -1 -1 -0 -0 -0 -0 0 0 0 0
1 1 1 0 0 0 0 -0 -0 -1 -1 -1 -2 -2 -2 -2 -1 -1 -2 -2 -2 -2 -2 -2 -2 -2 -1 -2 -1 -1 -1 -1 -1 -1 -1 -1 -0 -0 -0 -0 -0 -0 -0
0 -0 -0 -0 -1 -1 -1 -1 -1 -1 -2 -2 -2 -2 -2 -2 -2 -2 -2 -2 -2 -2 -2 -2 -2 -2 -2 -2 -2 -2 -2 -2 -2 -1 -1 -1 -1 -1 -1 -1 -0 -0 -0
-1 -1 -1 -1 -1 -1 -1 -1 -1 -2 -2 -2 -2 -2 -2 -2 -2 -2 -2 -2 -2 -2 -2 -2 -2 -2 -2 -2 -2 -2 -2 -2 -2 -2 -1 -1 -1 -1 -1 -1 -1 -1 -1
-1 -1 -1 -2 -2 -2 -2 -2 -2 -2 -2 -2 -2 -2 -2 -2 -2 -2 -2 -2 -2 -2 -2 -2 -3 -3 -3 -3 -3 -3 -3 -2 -2 -2 -1 -1 -1 -1 -1 -1 -1 -1 -1
-1 -2 -2 -2 -2 -2 -3 -3 -3 -3 -2 -2 -2 -2 -2 -2 -2 -2 -2 -2 -2 -2 -3 -3 -3 -3 -3 -3 -3 -3 -3 -2 -2 -2 -1 -1 -1 -1 -1 -1 -1 -1 -1
-2 -2 -3 -3 -3 -3 -3 -3 -3 -3 -3 -3 -3 -2 -2 -2 -2 -2 -2 -3 -3 -3 -3 -3 -3 -3 -3 -3 -3 -3 -3 -2 -2 -2 -2 -1 -1 -1 -1 -2 -2 -2 -2
-3 -3 -3 -3 -3 -3 -3 -3 -3 -4 -4 -4 -4 -3 -3 -3 -3 -3 -3 -3 -3 -4 -4 -4 -3 -3 -3 -3 -3 -3 -2 -2 -2 -2 -2 -2 -2 -2 -2 -2 -2 -2 -2
-3 -3 -3 -3 -3 -3 -4 -4 -4 -4 -4 -4 -4 -4 -4 -4 -4 -4 -4 -4 -4 -4 -4 -4 -4 -3 -3 -3 -3 -3 -2 -2 -2 -2 -2 -2 -2 -2 -2 -2 -2 -2 -2
-4 -4 -4 -4 -4 -4 -4 -4 -4 -4 -4 -4 -4 -4 -4 -4 -4 -4 -4 -4 -4 -4 -4 -4 -4 -4 -3 -3 -3 -3 -2 -2 -2 -2 -2 -2 -2 -2 -2 -2 -2 -2 -2
-4 -4 -4 -4 -4 -4 -4 -4 -5 -4 -5 -5 -4 -4 -4 -4 -4 -4 -4 -4 -4 -4 -4 -4 -4 -4 -3 -3 -3 -3 -3 -2 -2 -2 -2 -2 -2 -2 -2 -2 -2 -2 -2
-4 -4 -4 -4 -5 -5 -5 -5 -5 -5 -5 -5 -5 -5 -5 -5 -5 -5 -4 -4 -4 -4 -4 -4 -4 -3 -3 -3 -3 -3 -3 -2 -2 -2 -2 -2 -2 -2 -2 -2 -2 -2 -2
-5 -5 -5 -5 -5 -5 -5 -5 -5 -5 -5 -5 -5 -5 -5 -5 -5 -5 -5 -4 -4 -4 -4 -4 -4 -3 -3 -3 -3 -3 -3 -3 -3 -2 -2 -2 -2 -2 -2 -2 -2 -2 -2
-5 -5 -5 -5 -5 -6 -6 -6 -5 -5 -5 -5 -6 -6 -6 -5 -5 -5 -5 -5 -5 -4 -4 -4 -4 -3 -3 -3 -3 -3 -3 -3 -3 -3 -2 -2 -2 -2 -2 -2 -2 -2 -2
Wind_Speed
6 7 7 6 6 7 7 7 7 7 7 8 8 8 9 9 9 9 9 10 11 11 11 11 12 12 10 9 9 10 10 10 12 12 11 11 13 12 10 10 10 9 9
6 6 6 6 6 6 7 7 6 7 7 8 8 8 9 9 9 10 10 11 11 12 12 12 13 11 12 11 10 11 11 11 11 13 11 11 13 11 10 9 8 8 8
5 5 5 5 5 6 6 6 6 7 7 7 8 8 9 9 9 9 10 11 11 12 12 13 13 12 13 11 11 11 10 10 10 11 11 10 10 9 9 9 8 7 7
4 5 5 5 5 6 6 6 6 6 7 7 8 8 8 9 9 9 10 10 11 12 12 12 12 12 13 12 11 11 10 10 10 10 10 10 9 9 7 7 7 6 6
4 4 5 5 5 5 5 6 6 6 6 7 7 8 8 8 8 9 9 10 11 11 12 12 12 13 14 13 11 11 10 9 9 9 10 9 9 8 7 6 6 6 6
3 4 4 4 4 4 5 5 6 6 6 7 7 8 8 8 10 12 11 10 10 11 11 11 11 12 13 16 17 16 14 12 11 11 10 11 11 10 8 6 6 6 6
3 3 3 4 4 4 5 5 6 6 7 7 7 8 9 10 11 12 12 10 10 10 11 11 10 10 12 12 13 15 15 15 16 14 13 13 12 10 9 8 7 6 6
2 3 3 3 4 4 5 5 6 6 6 7 7 8 9 10 11 13 13 10 10 10 11 11 11 12 11 11 11 11 11 11 12 12 12 12 11 10 8 7 6 5 4
3 3 3 3 4 5 5 6 6 6 7 7 7 8 9 10 11 12 12 9 9 10 10 10 11 11 12 13 11 11 11 10 9 10 11 10 11 10 7 4 4 3 3
3 3 3 4 4 5 6 6 6 6 7 7 8 8 9 9 10 11 12 7 8 8 8 9 10 11 12 12 10 9 10 9 8 7 7 7 7 7 6 6 6 5 3
3 3 3 4 4 5 5 5 5 5 6 7 8 8 8 9 10 10 11 7 7 8 8 8 8 10 11 12 11 9 9 8 7 6 5 4 4 3 3 3 3 4 4
2 3 3 4 3 3 4 5 5 5 6 6 7 8 7 7 8 9 10 10 10 8 8 7 7 10 11 11 9 7 7 7 4 4 3 3 3 2 2 1 1 1 1
2 3 3 4 3 3 3 4 4 4 5 5 6 7 7 7 7 9 10 10 10 7 7 8 10 10 10 8 6 6 6 4 3 3 3 3 2 2 1 1 1 2 3
3 3 3 3 4 4 3 3 3 4 5 5 6 6 7 7 7 7 7 7 8 7 7 7 9 8 6 6 6 5 4 3 2 2 2 2 1 1 1 1 2 2 3
3 3 3 3 3 4 3 3 4 4 5 6 6 6 7 8 8 11 9 7 7 7 7 5 4 4 4 4 4 4 3 3 2 2 2 1 1 1 1 1 1 2 2
3 3 3 3 3 3 4 4 4 5 7 8 9 9 8 9 11 11 12 11 11 10 6 4 4 4 4 4 4 4 3 3 2 2 1 1 1 1 1 1 2 3 3
3 3 3 3 3 3 4 4 5 6 6 7 9 10 9 10 10 11 11 10 10 8 4 4 4 4 4 4 3 3 4 3 3 2 1 1 2 2 2 2 3 3 4
3 3 3 3 3 3 4 4 4 5 7 6 7 9 9 9 10 10 10 8 6 5 4 4 5 4 4 4 3 3 3 3 2 1 1 1 2 3 3 3 3 4 4
3 2 3 3 3 3 4 4 4 5 5 6 6 7 9 9 9 9 8 5 5 5 5 5 5 4 4 4 3 3 3 3 2 1 0 1 2 3 3 3 4 5 4
3 3 4 3 3 3 3 4 4 4 5 5 5 6 7 7 6 6 6 5 4 5 5 5 5 5 4 4 4 3 2 2 1 0 1 1 2 3 4 4 4 4 4
3 3 4 3 3 3 3 4 4 4 4 5 5 6 8 6 5 6 6 5 5 5 5 5 5 5 4 4 3 3 3 2 1 0 1 1 2 3 4 4 5 5 5
3 3 3 3 3 3 4 4 4 4 5 5 5 6 8 5 5 5 5 5 5 5 5 5 5 4 4 4 3 3 2 2 1 1 1 1 2 3 4 4 5 5 5
3 3 3 3 3 4 4 4 4 4 4 5 5 5 5 5 5 5 5 5 5 5 5 5 5 5 4 4 3 3 2 2 2 2 2 2 2 3 4 5 6 6 6
3 3 3 3 3 3 4 4 4 4 5 5 5 5 5 5 5 5 5 5 5 5 5 5 5 6 7 5 3 2 2 1 0 1 2 2 3 4 5 5 6 7 7
3 3 3 3 3 4 4 4 4 5 5 4 4 5 5 5 5 5 5 5 6 5 6 6 5 5 6 6 5 3 2 1 1 2 2 3 4 5 6 6 6 7 7
3 3 3 3 3 4 4 4 4 5 5 5 5 5 5 5 5 5 5 5 5 5 6 5 6 6 6 5 4 4 2 2 3 3 3 3 4 5 6 6 7 7 7
Wind_Direction
241 247 252 255 258 261 262 266 269 271 271 270 272 273 274 274 272 269 269 271 271 271 268 265 265 263 262 261 258 258 258 258 266 277 282 284 284 278 276 274 270 263 256
245 248 252 255 257 262 266 270 273 274 274 273 273 275 275 275 273 271 272 272 271 271 271 270 268 266 262 261 259 258 259 257 261 272 280 281 280 276 276 275 276 268 262
245 246 250 255 258 263 267 271 273 275 277 278 276 278 279 279 277 274 275 273 272 272 271 270 269 266 265 263 263 262 261 260 259 265 274 278 279 273 275 274 276 275 270
246 245 250 257 260 264 268 272 274 275 278 280 279 279 280 280 278 278 277 276 275 274 273 272 272 266 266 267 265 265 266 265 263 264 269 275 275 274 268 266 273 277 276
248 252 257 263 266 269 274 277 277 277 279 280 281 281 282 282 280 283 284 281 279 278 276 274 273 270 268 267 266 265 265 265 266 266 267 272 272 270 264 263 264 276 282
255 265 271 267 271 274 278 281 280 282 286 286 284 284 287 286 290 290 289 284 282 280 280 280 277 272 270 267 267 266 263 263 265 265 265 264 267 268 269 264 263 268 278
271 282 283 274 276 278 279 281 283 287 290 289 287 289 291 294 295 295 294 290 285 282 280 281 282 280 278 274 272 269 265 262 259 261 262 262 265 263 261 261 260 262 269
296 293 292 286 283 286 286 286 289 290 289 288 291 293 293 295 300 301 299 293 287 283 282 283 282 283 282 281 279 277 274 271 266 262 259 261 263 263 258 262 263 273 285
304 301 301 295 291 289 288 288 291 292 291 290 293 293 294 296 301 304 302 295 293 293 290 286 282 283 284 284 281 280 280 280 278 267 266 266 266 266 255 249 243 232 257
317 310 300 295 291 290 291 294 295 294 293 296 294 293 293 297 303 306 305 297 297 298 297 292 287 286 287 288 283 279 279 282 283 282 274 268 264 260 254 241 235 224 231
324 323 312 300 297 295 299 304 308 309 307 304 301 299 299 301 305 308 310 304 298 298 297 297 298 300 299 298 294 285 279 283 281 276 276 276 271 264 264 251 245 229 229
331 328 323 320 317 310 308 310 311 310 308 308 309 309 309 309 308 309 311 309 306 301 298 298 302 307 306 305 302 296 293 292 280 272 266 266 265 260 249 234 216 176 241
338 331 328 328 326 320 313 311 312 312 309 311 313 314 316 318 320 318 315 315 313 306 303 308 311 312 313 313 312 310 304 296 279 268 264 267 267 247 220 170 115 99 67
328 329 329 329 330 328 324 318 315 313 313 314 314 312 314 316 321 326 320 316 315 311 309 315 319 323 320 319 319 320 314 304 286 269 269 266 257 232 195 184 165 138 98
328 330 324 326 326 324 323 318 309 305 309 310 310 312 313 313 318 324 321 315 313 309 312 313 320 326 328 327 327 328 324 320 317 295 264 242 199 160 168 166 153 145 143
325 325 321 326 324 319 319 322 321 306 315 314 311 309 307 306 316 322 324 324 319 313 313 315 316 315 316 319 322 323 324 322 310 300 274 208 168 160 146 129 137 138 134
316 317 321 325 321 321 321 320 321 323 319 316 317 318 315 319 325 327 327 328 330 329 329 321 314 312 312 314 314 315 316 315 312 303 270 196 169 163 153 140 136 132 128
320 322 322 319 319 317 318 317 318 321 323 324 326 328 330 332 335 335 333 333 337 344 338 328 322 314 310 311 312 311 311 312 315 312 273 185 165 156 147 142 138 135 133
333 333 328 321 319 316 315 315 316 316 316 320 324 330 338 338 339 344 345 345 340 338 337 332 328 324 316 312 310 309 308 308 310 312 101 148 151 145 143 143 138 132 131
337 333 324 318 318 318 318 317 318 318 321 324 327 328 332 336 340 343 346 343 341 336 334 331 327 325 322 316 311 312 316 312 311 12 116 145 149 145 143 142 141 138 130
328 327 325 317 317 317 315 313 312 313 316 319 321 324 328 327 328 331 335 338 335 331 329 326 325 324 322 320 315 312 314 312 300 180 140 149 150 139 136 135 134 133 132
327 324 322 318 314 311 310 308 308 309 312 313 315 321 329 327 326 328 332 332 329 325 324 321 320 323 321 320 320 317 310 302 277 203 172 154 142 134 134 136 136 135 133
319 316 315 314 310 309 309 309 308 307 310 313 316 320 326 327 325 326 328 327 326 326 325 323 323 325 324 323 318 308 297 277 245 210 177 158 146 142 140 139 137 135 132
314 310 311 313 313 311 310 311 311 311 312 313 316 318 318 320 321 323 324 325 327 327 327 327 326 330 332 332 332 330 319 307 222 169 171 158 145 138 134 133 133 134 132
317 315 315 314 314 313 313 312 312 312 313 314 313 313 314 317 319 321 324 327 328 329 330 331 332 335 337 337 338 345 3 40 82 104 115 129 132 133 133 131 132 133 132
325 323 321 318 314 310 307 307 310 312 312 313 311 311 313 316 318 321 325 329 330 331 331 335 341 343 344 350 353 3 38 70 87 97 113 127 134 134 133 132 133 133 132
Height
1444 1444 1443 1442 1441 1440 1439 1437 1436 1434 1432 1430 1429 1427 1425 1424 1422 1421 1419 1417 1416 1414 1412 1411 1409 1408 1407 1406 1405 1404 1403 1401 1398 1394 1393 1392 1391 1389 1388 1387 1387 1386 1386
1439 1439 1438 1437 1436 1435 1434 1432 1431 1429 1427 1425 1424 1422 1420 1418 1416 1415 1413 1411 1409 1407 1406 1404 1402 1401 1400 1399 1398 1397 1396 1395 1393 1389 1387 1386 1384 1383 1382 1381 1381 1380 1379
1434 1434 1433 1432 1431 1430 1429 1428 1426 1424 1422 1421 1419 1417 1414 1412 1410 1409 1407 1405 1403 1401 1400 1398 1396 1394 1393 1392 1391 1390 1389 1388 1387 1384 1381 1380 1378 1377 1376 1375 1375 1374 1373
1430 1429 1428 1428 1427 1426 1424 1423 1421 1419 1418 1416 1414 1412 1410 1408 1406 1404 1402 1399 1397 1395 1393 1392 1389 1388 1386 1386 1385 1384 1383 1382 1380 1379 1376 1374 1373 1372 1371 1370 1369 1368 1368
1426 1425 1424 1423 1423 1421 1420 1419 1417 1415 1413 1411 1409 1407 1405 1403 1401 1398 1396 1393 1391 1389 1387 1385 1384 1382 1380 1380 1379 1378 1377 1376 1374 1373 1371 1369 1367 1367 1366 1365 1364 1363 1362
1422 1421 1420 1419 1418 1417 1416 1414 1413 1411 1409 1407 1405 1403 1400 1398 1396 1394 1391 1388 1386 1383 1381 1379 1377 1376 1374 1373 1372 1371 1371 1370 1368 1367 1365 1364 1362 1362 1361 1360 1359 1358 1357
1419 1418 1417 1416 1414 1413 1412 1410 1408 1407 1405 1403 1401 1399 1396 1393 1391 1389 1386 1383 1380 1378 1375 1373 1371 1369 1368 1367 1365 1364 1364 1363 1363 1362 1360 1358 1357 1357 1357 1356 1355 1354 1353
1416 1415 1414 1412 1411 1409 1408 1406 1404 1403 1401 1398 1396 1394 1391 1388 1386 1383 1381 1378 1375 1372 1370 1368 1366 1363 1362 1361 1360 1358 1357 1356 1356 1355 1354 1352 1352 1352 1352 1351 1350 1349 1349
1413 1412 1411 1409 1408 1406 1404 1402 1401 1399 1397 1395 1392 1390 1387 1384 1381 1379 1376 1373 1370 1367 1365 1363 1361 1359 1357 1356 1354 1352 1351 1349 1349 1348 1347 1346 1346 1346 1347 1347 1347 1346 1345
1410 1409 1408 1406 1404 1403 1401 1399 1397 1395 1393 1390 1388 1385 1383 1379 1377 1374 1372 1369 1366 1363 1360 1358 1356 1354 1352 1351 1349 1347 1345 1344 1343 1342 1342 1341 1341 1341 1342 1343 1343 1343 1343
1407 1406 1404 1403 1401 1400 1398 1396 1394 1391 1389 1386 1384 1381 1379 1376 1373 1370 1368 1365 1362 1359 1356 1353 1351 1349 1347 1346 1344 1342 1341 1340 1338 1337 1337 1337 1337 1337 1337 1339 1340 1341 1341
1404 1403 1401 1400 1398 1396 1395 1393 1391 1388 1386 1383 1380 1377 1375 1372 1369 1366 1364 1362 1359 1356 1353 1350 1347 1345 1343 1341 1339 1337 1336 1335 1334 1333 1333 1333 1333 1334 1335 1336 1337 1338 1339
1401 1400 1398 1397 1395 1394 1392 1390 1388 1385 1383 1380 1377 1374 1371 1369 1366 1363 1360 1358 1355 1353 1350 1347 1344 1342 1340 1337 1335 1334 1333 1331 1330 1330 1329 1330 1330 1331 1332 1334 1335 1336 1338
1399 1397 1396 1394 1392 1391 1389 1387 1385 1383 1380 1378 1375 1372 1368 1365 1362 1360 1357 1355 1352 1350 1347 1344 1341 1339 1337 1335 1333 1331 1330 1328 1328 1327 1327 1328 1329 1330 1331 1332 1333 1335 1336
1397 1395 1394 1392 1390 1388 1386 1385 1383 1381 1379 1376 1372 1370 1366 1363 1361 1358 1356 1353 1350 1347 1344 1342 1339 1336 1334 1332 1331 1329 1328 1327 1326 1326 1326 1326 1327 1328 1329 1331 1332 1334 1335
1394 1393 1391 1389 1388 1386 1384 1382 1380 1379 1376 1373 1370 1368 1364 1362 1359 1356 1353 1350 1348 1345 1343 1339 1337 1335 1333 1331 1329 1328 1327 1326 1325 1325 1325 1325 1326 1327 1328 1330 1332 1333 1335
1392 1391 1389 1387 1386 1384 1382 1380 1377 1375 1373 1370 1368 1365 1362 1359 1356 1354 1351 1348 1346 1344 1341 1338 1336 1334 1332 1331 1329 1327 1326 1325 1325 1324 1324 1325 1326 1327 1328 1330 1332 1333 1335
1390 1389 1387 1386 1384 1382 1380 1378 1375 1372 1369 1366 1365 1363 1360 1357 1354 1352 1350 1347 1344 1342 1339 1337 1335 1333 1332 1330 1328 1327 1326 1325 1324 1324 1324 1325 1326 1327 1328 1330 1332 1333 1335
1388 1387 1385 1384 1382 1380 1378 1376 1374 1371 1368 1365 1362 1360 1359 1356 1353 1351 1349 1346 1343 1341 1339 1337 1335 1333 1331 1330 1328 1327 1326 1325 1325 1324 1325 1325 1326 1327 1329 1331 1333 1335 1336
1386 1385 1384 1382 1380 1379 1377 1374 1372 1369 1367 1364 1362 1359 1357 1354 1351 1349 1347 1345 1343 1340 1338 1336 1334 1333 1331 1329 1328 1327 1326 1325 1325 1325 1325 1326 1327 1328 1330 1331 1333 1335 1337
1384 1383 1382 1380 1379 1377 1375 1373 1371 1368 1366 1363 1361 1359 1357 1354 1351 1349 1347 1345 1342 1340 1338 1336 1334 1332 1331 1329 1328 1327 1326 1325 1325 1325 1326 1327 1328 1329 1331 1332 1334 1336 1338
1383 1382 1380 1379 1377 1375 1373 1371 1369 1367 1364 1362 1360 1358 1356 1353 1351 1349 1346 1344 1342 1340 1338 1336 1334 1332 1331 1330 1328 1327 1326 1326 1326 1326 1327 1328 1329 1330 1332 1334 1335 1337 1339
1382 1380 1378 1377 1375 1373 1372 1370 1367 1365 1363 1361 1359 1357 1354 1352 1350 1348 1346 1344 1342 1340 1338 1336 1334 1332 1331 1330 1329 1328 1327 1327 1327 1327 1328 1329 1330 1332 1333 1334 1336 1338 1340
1380 1379 1377 1375 1373 1372 1370 1368 1366 1364 1362 1360 1357 1356 1353 1351 1349 1347 1345 1343 1341 1340 1338 1336 1334 1333 1331 1330 1329 1328 1328 1328 1328 1329 1329 1330 1331 1333 1334 1336 1338 1340 1342
1379 1377 1375 1373 1371 1370 1368 1366 1364 1362 1360 1358 1356 1354 1352 1350 1349 1346 1345 1343 1341 1339 1337 1336 1334 1333 1331 1330 1329 1329 1328 1329 1329 1330 1330 1331 1333 1334 1336 1337 1339 1342 1344
1377 1375 1373 1371 1369 1368 1366 1364 1362 1360 1358 1356 1354 1353 1351 1349 1347 1346 1344 1342 1340 1339 1337 1336 1334 1333 1332 1331 1330 1329 1329 1330 1330 1331 1332 1333 1334 1336 1337 1339 1341 1343 1345